DW9758 Weather Reports


time (UTC)temp
C
wind
direction
speed
KPH
gust
KPH
rain 1hr
cm
rain 24hr
cm
rain mn
cm
humidity
%
barometer
mb
20260504090121 15 62 4.8 17.7 0.00 0.00 0.00 49 1011.4
20260504081656 13 43 0.0 1.6 0.00 0.00 0.00 56 1011.6
20260504044537 8 297 0.0 0.0 0.00 0.00 0.00 78 1012.2
20260504043033 7 297 0.0 0.0 0.00 0.00 0.00 76 1012.2
20260504041524 7 297 0.0 0.0 0.00 0.00 0.00 79 1012.1
20260504040024 7 297 0.0 0.0 0.00 0.00 0.00 79 1012.1
20260504034533 7 297 0.0 0.0 0.00 0.00 0.00 78 1012.5
20260504033029 7 297 0.0 0.0 0.00 0.00 0.00 79 1012.5
20260504031520 7 297 0.0 0.0 0.00 0.00 0.00 79 1012.6
20260504030019 7 340 0.0 0.0 0.00 0.00 0.00 78 1012.6
20260504024521 7 45 0.0 0.0 0.00 0.00 0.00 80 1012.7
20260504023016 7 45 0.0 0.0 0.00 0.00 0.00 81 1012.9
20260504021513 7 198 0.0 0.0 0.00 0.00 0.00 83 1013.0
20260504020015 7 208 0.0 0.0 0.00 0.00 0.00 82 1013.0
20260504014514 7 337 0.0 0.0 0.00 0.00 0.00 81 1013.0
20260504013010 7 359 0.0 0.0 0.00 0.00 0.00 81 1013.0
20260504011507 8 360 0.0 0.0 0.00 0.00 0.00 81 1013.0
20260504010009 8 354 0.0 0.0 0.00 0.00 0.00 82 1013.1
20260504004510 8 353 0.0 0.0 0.00 0.00 0.00 82 1013.1
20260504003002 8 349 0.0 0.0 0.00 0.00 0.00 83 1013.1
20260504001502 8 323 0.0 0.0 0.00 0.00 0.00 83 1013.3
20260504000100 8 288 0.0 0.0 0.00 0.00 0.00 83 1013.3
20260503234557 8 288 0.0 0.0 0.00 0.00 0.00 82 1013.3
20260503233056 9 287 0.0 0.0 0.00 0.00 0.00 81 1013.4
20260503231554 9 286 0.0 0.0 0.00 0.00 0.00 82 1013.3
20260503230053 9 285 0.0 0.0 0.00 0.00 0.00 82 1013.3
20260503224552 10 286 0.0 0.0 0.00 0.00 0.00 82 1013.4
20260503223051 10 285 0.0 0.0 0.00 0.00 0.00 81 1013.5
20260503221549 10 285 0.0 0.0 0.00 0.00 0.00 82 1013.4
20260503220104 10 284 0.0 0.0 0.00 0.00 0.00 81 1013.3
20260503214547 10 286 0.0 0.0 0.00 0.00 0.00 81 1013.4
20260503213048 10 286 0.0 0.0 0.00 0.00 0.00 79 1013.3
20260503211559 11 286 0.0 0.0 0.00 0.00 0.00 78 1013.3
20260503210043 11 286 0.0 0.0 0.00 0.00 0.00 77 1013.0
20260503204542 11 286 0.0 0.0 0.00 0.00 0.00 77 1012.9
20260503203042 11 285 0.0 0.0 0.00 0.00 0.00 75 1012.6
20260503201541 12 285 0.0 0.0 0.00 0.00 0.00 74 1012.7
20260503200041 12 278 0.0 0.0 0.00 0.00 0.00 74 1012.7
20260503194540 12 313 0.0 0.0 0.00 0.00 0.00 72 1012.6
20260503193048 12 316 0.0 0.0 0.00 0.00 0.00 72 1012.5
20260503191539 12 249 0.0 0.0 0.00 0.00 0.00 71 1012.4
20260503190038 12 278 0.0 0.0 0.00 0.00 0.00 70 1012.3
20260503184538 12 291 0.0 0.0 0.00 0.00 0.00 70 1012.1
20260503183040 13 268 0.0 1.6 0.00 0.00 0.00 71 1012.1
20260503181612 13 333 0.0 8.0 0.00 0.00 0.00 69 1012.0
20260503180040 13 286 0.0 0.0 0.00 0.00 0.00 69 1012.1
20260503174537 13 294 0.0 0.0 0.00 0.00 0.00 68 1012.1
20260503173050 14 257 3.2 16.1 0.00 0.00 0.00 64 1012.0
20260503171534 15 235 0.0 8.0 0.00 0.00 0.00 59 1012.1